Location: Anna District 4 Election Precinct
(37.4833°N, 89.2195°W)
Time: 23:31:45
(UTC+00:00)

NOAA 12 - Pass Details

Date: 08 March 2021
Orbit: 795 x 815 km, 98.5° (Epoch: 12 April)

Event Time Altitude Azimuth Distance (km) Brightness Sun altitude
Rises 10:59:19 0° 32° (NNE) 3,342 7.9 -16.4°
Reaches altitude 10° 11:02:29 10° 51° (NE) 2,402 7.5 -15.8°
Maximum altitude 11:05:58 18° 93° (E) 1,917 7.2 -15.1°
Drops below altitude 10° 11:09:24 10° 134° (SE) 2,383 7.1 -14.4°
Sets 11:12:31 0° 153° (SSE) 3,305 7.6 -13.8°
